• Em Portugal
  • Lista de países
  • Para 7 dias
  • Temperatura da água
  • Mapas de satélite
  • Mapa do tempo
  • Widgets de tempo
  • user-avatar
    Iniciar Sessão

    Previsão horária em Saidpur

    Hoje, 24 Janeiro, Quarta-feira

    Tempo Temperatura Precipitação Vento Pressão Humidade
    00:00 +20°C° 0 mm 1 m/s 755 mmHg 46%
    01:00 +20°C° 0 mm 1 m/s 755 mmHg 48%
    02:00 +19°C° 0 mm 1 m/s 755 mmHg 49%
    03:00 +19°C° 0 mm 1 m/s 755 mmHg 51%
    04:00 +18°C° 0 mm 1 m/s 755 mmHg 53%
    05:00 +16°C° 0 mm 0 m/s 755 mmHg 55%
    06:00 +16°C° 0 mm 0 m/s 754 mmHg 57%
    07:00 +17°C° 0 mm 0 m/s 755 mmHg 53%
    08:00 +18°C° 0 mm 0 m/s 755 mmHg 50%
    09:00 +20°C° 0 mm 0 m/s 755 mmHg 46%
    10:00 +24°C° 0 mm 1 m/s 755 mmHg 40%
    11:00 +25°C° 0 mm 1 m/s 755 mmHg 35%
    12:00 +27°C° 0 mm 2 m/s 755 mmHg 29%
    13:00 +28°C° 0 mm 2 m/s 754 mmHg 27%
    14:00 +28°C° 0 mm 2 m/s 753 mmHg 25%
    15:00 +29°C° 0 mm 3 m/s 752 mmHg 23%
    16:00 +28°C° 0 mm 2 m/s 752 mmHg 26%
    17:00 +27°C° 0 mm 2 m/s 752 mmHg 29%
    18:00 +25°C° 0 mm 2 m/s 752 mmHg 32%
    19:00 +25°C° 0 mm 2 m/s 753 mmHg 34%
    20:00 +24°C° 0 mm 2 m/s 753 mmHg 36%
    21:00 +24°C° 0 mm 2 m/s 754 mmHg 38%
    22:00 +23°C° 0 mm 2 m/s 754 mmHg 40%
    23:00 +23°C° 0 mm 2 m/s 754 mmHg 43%

    Amanhã, 25 Janeiro, Quinta-feira

    Tempo Temperatura Precipitação Vento Pressão Humidade
    00:00 +21°C° 0 mm 2 m/s 754 mmHg 45%
    01:00 +21°C° 0 mm 2 m/s 754 mmHg 48%
    02:00 +20°C° 0 mm 3 m/s 754 mmHg 51%
    03:00 +20°C° 0 mm 3 m/s 754 mmHg 53%
    04:00 +19°C° 0 mm 3 m/s 754 mmHg 55%
    05:00 +18°C° 0 mm 3 m/s 754 mmHg 57%
    06:00 +17°C° 0 mm 3 m/s 754 mmHg 59%
    07:00 +18°C° 0 mm 3 m/s 755 mmHg 55%
    08:00 +19°C° 0 mm 3 m/s 755 mmHg 51%
    09:00 +19°C° 0 mm 3 m/s 756 mmHg 48%
    10:00 +21°C° 0 mm 3 m/s 756 mmHg 42%
    11:00 +24°C° 0 mm 3 m/s 756 mmHg 37%
    12:00 +26°C° 0 mm 3 m/s 756 mmHg 32%
    13:00 +26°C° 0 mm 3 m/s 755 mmHg 30%
    14:00 +27°C° 0 mm 3 m/s 754 mmHg 28%
    15:00 +27°C° 0 mm 3 m/s 754 mmHg 25%
    16:00 +26°C° 0 mm 3 m/s 754 mmHg 28%
    17:00 +25°C° 0 mm 3 m/s 754 mmHg 31%
    18:00 +24°C° 0 mm 2 m/s 754 mmHg 34%
    19:00 +22°C° 0 mm 3 m/s 754 mmHg 38%
    20:00 +21°C° 0 mm 3 m/s 755 mmHg 42%
    21:00 +20°C° 0 mm 3 m/s 756 mmHg 46%
    22:00 +20°C° 0 mm 3 m/s 756 mmHg 49%
    23:00 +19°C° 0 mm 3 m/s 756 mmHg 51%

    Depois de amanhã, 26 Janeiro, Sexta-feira

    Tempo Temperatura Precipitação Vento Pressão Humidade
    00:00 +19°C° 0 mm 3 m/s 756 mmHg 53%
    01:00 +18°C° 0 mm 3 m/s 756 mmHg 54%
    02:00 +17°C° 0 mm 3 m/s 755 mmHg 54%
    03:00 +17°C° 0 mm 2 m/s 755 mmHg 54%
    04:00 +16°C° 0 mm 2 m/s 755 mmHg 55%
    05:00 +16°C° 0 mm 2 m/s 755 mmHg 56%
    06:00 +16°C° 0 mm 2 m/s 755 mmHg 57%
    07:00 +17°C° 0 mm 2 m/s 756 mmHg 54%
    08:00 +18°C° 0 mm 2 m/s 757 mmHg 50%
    09:00 +19°C° 0 mm 2 m/s 758 mmHg 46%
    10:00 +21°C° 0 mm 2 m/s 758 mmHg 42%
    11:00 +24°C° 0 mm 2 m/s 757 mmHg 38%
    12:00 +25°C° 0 mm 2 m/s 757 mmHg 34%
    13:00 +26°C° 0 mm 3 m/s 756 mmHg 31%
    14:00 +26°C° 0 mm 3 m/s 755 mmHg 29%
    15:00 +27°C° 0 mm 3 m/s 754 mmHg 26%
    16:00 +26°C° 0 mm 3 m/s 754 mmHg 30%
    17:00 +24°C° 0 mm 3 m/s 754 mmHg 34%
    18:00 +22°C° 0 mm 3 m/s 754 mmHg 37%
    19:00 +21°C° 0 mm 3 m/s 755 mmHg 40%
    20:00 +20°C° 0 mm 3 m/s 755 mmHg 43%
    21:00 +20°C° 0 mm 3 m/s 756 mmHg 46%
    22:00 +19°C° 0 mm 3 m/s 756 mmHg 47%
    23:00 +19°C° 0 mm 3 m/s 756 mmHg 49%

    27 Janeiro, Sábado

    Tempo Temperatura Precipitação Vento Pressão Humidade
    00:00 +18°C° 0 mm 2 m/s 756 mmHg 50%
    01:00 +18°C° 0 mm 2 m/s 755 mmHg 52%
    02:00 +17°C° 0 mm 2 m/s 755 mmHg 53%
    03:00 +16°C° 0 mm 2 m/s 755 mmHg 55%
    04:00 +16°C° 0 mm 2 m/s 755 mmHg 56%
    05:00 +15°C° 0 mm 2 m/s 755 mmHg 57%
    06:00 +15°C° 0 mm 2 m/s 755 mmHg 59%
    07:00 +16°C° 0 mm 2 m/s 756 mmHg 56%
    08:00 +17°C° 0 mm 2 m/s 757 mmHg 52%
    09:00 +18°C° 0 mm 2 m/s 757 mmHg 49%
    10:00 +20°C° 0 mm 2 m/s 757 mmHg 44%
    11:00 +23°C° 0 mm 2 m/s 757 mmHg 40%
    12:00 +24°C° 0 mm 2 m/s 757 mmHg 35%
    13:00 +25°C° 0 mm 3 m/s 756 mmHg 32%
    14:00 +25°C° 0 mm 3 m/s 755 mmHg 29%
    15:00 +26°C° 0 mm 4 m/s 754 mmHg 25%
    16:00 +25°C° 0 mm 3 m/s 754 mmHg 28%
    17:00 +22°C° 0 mm 3 m/s 754 mmHg 31%
    18:00 +21°C° 0 mm 2 m/s 754 mmHg 34%
    19:00 +20°C° 0 mm 2 m/s 755 mmHg 36%
    20:00 +19°C° 0 mm 2 m/s 756 mmHg 39%
    21:00 +19°C° 0 mm 2 m/s 756 mmHg 41%
    22:00 +18°C° 0 mm 2 m/s 756 mmHg 43%
    23:00 +18°C° 0 mm 2 m/s 756 mmHg 45%

    28 Janeiro, Domingo

    Tempo Temperatura Precipitação Vento Pressão Humidade
    00:00 +17°C° 0 mm 2 m/s 756 mmHg 47%
    01:00 +16°C° 0 mm 2 m/s 756 mmHg 49%
    02:00 +16°C° 0 mm 2 m/s 756 mmHg 51%
    03:00 +15°C° 0 mm 2 m/s 756 mmHg 53%
    04:00 +15°C° 0 mm 2 m/s 756 mmHg 54%
    05:00 +15°C° 0 mm 2 m/s 756 mmHg 55%
    06:00 +14°C° 0 mm 2 m/s 756 mmHg 56%
    07:00 +15°C° 0 mm 2 m/s 757 mmHg 52%
    08:00 +16°C° 0 mm 2 m/s 758 mmHg 49%
    09:00 +18°C° 0 mm 2 m/s 758 mmHg 45%
    10:00 +19°C° 0 mm 2 m/s 758 mmHg 41%
    11:00 +21°C° 0 mm 2 m/s 758 mmHg 36%
    12:00 +24°C° 0 mm 2 m/s 758 mmHg 32%
    13:00 +24°C° 0 mm 2 m/s 757 mmHg 29%
    14:00 +25°C° 0 mm 3 m/s 756 mmHg 27%
    15:00 +26°C° 0 mm 3 m/s 756 mmHg 24%
    16:00 +24°C° 0 mm 3 m/s 756 mmHg 27%
    17:00 +22°C° 0 mm 3 m/s 756 mmHg 29%
    18:00 +21°C° 0 mm 2 m/s 756 mmHg 32%
    19:00 +20°C° 0 mm 2 m/s 756 mmHg 34%
    20:00 +19°C° 0 mm 2 m/s 757 mmHg 36%
    21:00 +19°C° 0 mm 2 m/s 757 mmHg 38%
    22:00 +18°C° 0 mm 2 m/s 757 mmHg 39%
    23:00 +18°C° 0 mm 2 m/s 757 mmHg 41%

    29 Janeiro, Segunda-feira

    Tempo Temperatura Precipitação Vento Pressão Humidade
    00:00 +17°C° 0 mm 2 m/s 757 mmHg 42%
    01:00 +16°C° 0 mm 2 m/s 757 mmHg 44%
    02:00 +16°C° 0 mm 2 m/s 757 mmHg 45%
    03:00 +15°C° 0 mm 1 m/s 756 mmHg 47%
    04:00 +15°C° 0 mm 1 m/s 757 mmHg 49%
    05:00 +15°C° 0 mm 1 m/s 757 mmHg 51%
    06:00 +14°C° 0 mm 1 m/s 757 mmHg 52%
    07:00 +15°C° 0 mm 1 m/s 758 mmHg 50%
    08:00 +18°C° 0 mm 1 m/s 758 mmHg 47%
    09:00 +19°C° 0 mm 1 m/s 759 mmHg 44%
    10:00 +20°C° 0 mm 2 m/s 759 mmHg 40%
    11:00 +21°C° 0 mm 2 m/s 759 mmHg 35%
    12:00 +24°C° 0 mm 2 m/s 759 mmHg 31%
    13:00 +25°C° 0 mm 2 m/s 758 mmHg 29%
    14:00 +25°C° 0 mm 3 m/s 757 mmHg 27%
    15:00 +26°C° 0 mm 3 m/s 757 mmHg 25%
    16:00 +25°C° 0 mm 3 m/s 756 mmHg 28%
    17:00 +24°C° 0 mm 3 m/s 756 mmHg 31%
    18:00 +21°C° 0 mm 2 m/s 756 mmHg 33%
    19:00 +21°C° 0 mm 2 m/s 757 mmHg 35%
    20:00 +20°C° 0 mm 2 m/s 757 mmHg 38%
    21:00 +19°C° 0 mm 2 m/s 757 mmHg 40%
    22:00 +18°C° 0 mm 2 m/s 757 mmHg 42%
    23:00 +18°C° 0 mm 2 m/s 757 mmHg 44%
    Mostrar mais